| time (UTC) | temp F | wind direction | speed MPH | gust MPH | rain 1hr in | rain 24hr in | rain mn in | humidity % | barometer mb |
| 20260508132029 | 66 | 153 | 2.0 | 13.0 | 0.00 | 0.00 | 0.00 | 47 | 1018.1 |
| 20260508131030 | 66 | 105 | 5.0 | 18.0 | 0.00 | 0.00 | 0.00 | 49 | 1018.2 |
| 20260508130029 | 65 | 60 | 2.0 | 10.0 | 0.00 | 0.00 | 0.00 | 50 | 1018.2 |
| 20260508125029 | 64 | 86 | 0.0 | 11.0 | 0.00 | 0.00 | 0.00 | 52 | 1018.3 |
| 20260508124030 | 62 | 124 | 2.0 | 8.0 | 0.00 | 0.00 | 0.00 | 53 | 1018.3 |
| 20260508123030 | 61 | 81 | 6.0 | 14.0 | 0.00 | 0.00 | 0.00 | 52 | 1018.3 |
| 20260508122030 | 62 | 111 | 3.0 | 14.0 | 0.00 | 0.00 | 0.00 | 53 | 1018.3 |
| 20260508121030 | 62 | 91 | 7.0 | 14.0 | 0.00 | 0.00 | 0.00 | 53 | 1018.4 |
| 20260508120030 | 62 | 110 | 3.0 | 10.0 | 0.00 | 0.00 | 0.00 | 53 | 1018.3 |
| 20260508115030 | 63 | 149 | 3.0 | 17.0 | 0.00 | 0.00 | 0.00 | 53 | 1018.4 |
| 20260508114029 | 63 | 104 | 4.0 | 15.0 | 0.00 | 0.00 | 0.00 | 56 | 1018.4 |
| 20260508113030 | 62 | 103 | 4.0 | 15.0 | 0.00 | 0.00 | 0.00 | 56 | 1018.4 |
| 20260508112029 | 61 | 91 | 6.0 | 20.0 | 0.00 | 0.00 | 0.00 | 59 | 1018.6 |
| 20260508111030 | 60 | 107 | 5.0 | 18.0 | 0.00 | 0.00 | 0.00 | 59 | 1018.5 |
| 20260508110029 | 60 | 60 | 3.0 | 16.0 | 0.00 | 0.00 | 0.00 | 58 | 1018.6 |
| 20260508105030 | 60 | 121 | 6.0 | 24.0 | 0.00 | 0.00 | 0.00 | 60 | 1018.6 |
| 20260508104029 | 59 | 100 | 5.0 | 15.0 | 0.00 | 0.00 | 0.00 | 61 | 1018.7 |
| 20260508103030 | 59 | 111 | 5.0 | 21.0 | 0.00 | 0.00 | 0.00 | 62 | 1018.7 |
| 20260508102029 | 58 | 226 | 1.0 | 14.0 | 0.00 | 0.00 | 0.00 | 64 | 1018.7 |
| 20260508101029 | 58 | 320 | 1.0 | 20.0 | 0.00 | 0.00 | 0.00 | 64 | 1018.7 |
| 20260508100030 | 58 | 111 | 2.0 | 21.0 | 0.00 | 0.00 | 0.00 | 65 | 1018.7 |
| 20260508095029 | 57 | 137 | 2.0 | 18.0 | 0.00 | 0.00 | 0.00 | 66 | 1018.8 |
| 20260508094030 | 57 | 270 | 1.0 | 16.0 | 0.00 | 0.00 | 0.00 | 66 | 1018.8 |
| 20260508093029 | 56 | 185 | 2.0 | 19.0 | 0.00 | 0.00 | 0.00 | 67 | 1018.8 |
| 20260508092030 | 56 | 102 | 2.0 | 15.0 | 0.00 | 0.00 | 0.00 | 67 | 1018.8 |
| 20260508091030 | 56 | 93 | 4.0 | 19.0 | 0.00 | 0.00 | 0.00 | 69 | 1018.8 |
| 20260508090029 | 55 | 121 | 4.0 | 19.0 | 0.00 | 0.00 | 0.00 | 70 | 1018.9 |
| 20260508085030 | 55 | 268 | 1.0 | 12.0 | 0.00 | 0.00 | 0.00 | 71 | 1018.9 |
| 20260508084030 | 55 | 289 | 1.0 | 11.0 | 0.00 | 0.00 | 0.00 | 72 | 1019.0 |
| 20260508083029 | 54 | 130 | 2.0 | 16.0 | 0.00 | 0.00 | 0.00 | 73 | 1019.0 |
| 20260508082030 | 54 | 102 | 3.0 | 14.0 | 0.00 | 0.00 | 0.00 | 74 | 1019.0 |
| 20260508081029 | 53 | 91 | 5.0 | 17.0 | 0.00 | 0.00 | 0.00 | 75 | 1018.9 |
| 20260508080030 | 53 | 124 | 4.0 | 14.0 | 0.00 | 0.00 | 0.00 | 75 | 1018.9 |
| 20260508075030 | 53 | 127 | 5.0 | 16.0 | 0.00 | 0.00 | 0.00 | 75 | 1019.0 |
| 20260508074029 | 53 | 274 | 1.0 | 15.0 | 0.00 | 0.00 | 0.00 | 75 | 1019.0 |
| 20260508073030 | 52 | 90 | 6.0 | 18.0 | 0.00 | 0.00 | 0.00 | 76 | 1018.9 |
| 20260508072029 | 52 | 103 | 2.0 | 15.0 | 0.00 | 0.00 | 0.00 | 77 | 1019.1 |
| 20260508071030 | 51 | 139 | 2.0 | 15.0 | 0.00 | 0.00 | 0.00 | 77 | 1019.0 |
| 20260508070030 | 51 | 188 | 1.0 | 14.0 | 0.00 | 0.00 | 0.00 | 78 | 1019.0 |
| 20260508065030 | 51 | 77 | 2.0 | 14.0 | 0.00 | 0.00 | 0.00 | 79 | 1018.9 |
| 20260508064030 | 51 | 116 | 4.0 | 13.0 | 0.00 | 0.00 | 0.00 | 80 | 1018.9 |
| 20260508063030 | 50 | 150 | 1.0 | 10.0 | 0.00 | 0.00 | 0.00 | 81 | 1018.8 |
| 20260508062030 | 50 | 52 | 1.0 | 9.0 | 0.00 | 0.00 | 0.00 | 82 | 1018.7 |
| 20260508061030 | 50 | 97 | 2.0 | 11.0 | 0.00 | 0.00 | 0.00 | 82 | 1018.6 |
| 20260508060029 | 50 | 87 | 3.0 | 12.0 | 0.00 | 0.00 | 0.00 | 83 | 1018.5 |
| 20260508055030 | 50 | 84 | 2.0 | 12.0 | 0.00 | 0.00 | 0.00 | 83 | 1018.4 |
| 20260508054029 | 49 | 97 | 0.0 | 12.0 | 0.00 | 0.00 | 0.00 | 83 | 1018.3 |
| 20260508053030 | 49 | 278 | 0.0 | 7.0 | 0.00 | 0.00 | 0.00 | 84 | 1018.2 |
| 20260508052029 | 49 | 115 | 1.0 | 12.0 | 0.00 | 0.00 | 0.00 | 85 | 1018.2 |
| 20260508051029 | 49 | 138 | 1.0 | 12.0 | 0.00 | 0.00 | 0.00 | 84 | 1018.1 |
| 20260508050030 | 49 | 108 | 1.0 | 11.0 | 0.00 | 0.00 | 0.00 | 85 | 1018.1 |
| 20260508045029 | 48 | 81 | 1.0 | 11.0 | 0.00 | 0.00 | 0.00 | 85 | 1018.1 |
| 20260508044030 | 48 | 199 | 2.0 | 9.0 | 0.00 | 0.00 | 0.00 | 85 | 1018.1 |
| 20260508043029 | 48 | 108 | 0.0 | 9.0 | 0.00 | 0.00 | 0.00 | 84 | 1018.0 |
| 20260508042030 | 48 | 74 | 1.0 | 9.0 | 0.00 | 0.00 | 0.00 | 84 | 1018.0 |
| 20260508041030 | 48 | 183 | 0.0 | 9.0 | 0.00 | 0.00 | 0.00 | 84 | 1017.9 |
| 20260508040030 | 48 | 91 | 1.0 | 7.0 | 0.00 | 0.00 | 0.00 | 84 | 1017.9 |
| 20260508035030 | 48 | 91 | 1.0 | 8.0 | 0.00 | 0.00 | 0.00 | 83 | 1018.0 |
| 20260508034029 | 49 | 99 | 2.0 | 9.0 | 0.00 | 0.00 | 0.00 | 83 | 1018.0 |
| 20260508033030 | 49 | 71 | 1.0 | 7.0 | 0.00 | 0.00 | 0.00 | 83 | 1017.9 |
| 20260508032030 | 49 | 102 | 2.0 | 7.0 | 0.00 | 0.00 | 0.00 | 82 | 1017.9 |
| 20260508031030 | 49 | 107 | 1.0 | 8.0 | 0.00 | 0.00 | 0.00 | 82 | 1017.8 |
| 20260508030030 | 49 | 130 | 0.0 | 10.0 | 0.00 | 0.00 | 0.00 | 82 | 1017.8 |
| 20260508025030 | 49 | 356 | 0.0 | 8.0 | 0.00 | 0.00 | 0.00 | 82 | 1017.8 |
| 20260508024029 | 49 | 120 | 1.0 | 9.0 | 0.00 | 0.00 | 0.00 | 81 | 1017.8 |
| 20260508023030 | 49 | 86 | 2.0 | 11.0 | 0.00 | 0.00 | 0.00 | 81 | 1017.8 |
| 20260508022029 | 49 | 136 | 1.0 | 10.0 | 0.00 | 0.00 | 0.00 | 81 | 1017.8 |
| 20260508021029 | 49 | 115 | 2.0 | 12.0 | 0.00 | 0.00 | 0.00 | 81 | 1017.8 |
| 20260508020030 | 50 | 106 | 2.0 | 11.0 | 0.00 | 0.00 | 0.00 | 80 | 1017.6 |
| 20260508015029 | 50 | 124 | 2.0 | 10.0 | 0.00 | 0.00 | 0.00 | 80 | 1017.7 |
| 20260508014030 | 50 | 142 | 2.0 | 10.0 | 0.00 | 0.00 | 0.00 | 79 | 1017.8 |
| 20260508013030 | 50 | 136 | 2.0 | 11.0 | 0.00 | 0.00 | 0.00 | 79 | 1017.8 |
| 20260508012030 | 50 | 144 | 1.0 | 14.0 | 0.00 | 0.00 | 0.00 | 79 | 1017.8 |
| 20260508011029 | 50 | 120 | 2.0 | 12.0 | 0.00 | 0.00 | 0.00 | 78 | 1017.9 |
| 20260508010030 | 50 | 115 | 3.0 | 11.0 | 0.00 | 0.00 | 0.00 | 78 | 1018.0 |
| 20260508005030 | 50 | 120 | 2.0 | 12.0 | 0.00 | 0.00 | 0.00 | 78 | 1018.0 |
| 20260508004030 | 50 | 143 | 2.0 | 9.0 | 0.00 | 0.00 | 0.00 | 78 | 1017.8 |
| 20260508003029 | 50 | 127 | 2.0 | 9.0 | 0.00 | 0.00 | 0.00 | 77 | 1017.9 |
| 20260508002030 | 50 | 102 | 2.0 | 8.0 | 0.00 | 0.00 | 0.00 | 77 | 1017.9 |
| 20260508001029 | 51 | 123 | 2.0 | 9.0 | 0.00 | 0.00 | 0.00 | 76 | 1017.9 |
| 20260508000030 | 51 | 117 | 2.0 | 10.0 | 0.00 | 0.00 | 0.00 | 75 | 1017.8 |
| 20260507235030 | 51 | 129 | 1.0 | 9.0 | 0.00 | 0.00 | 0.00 | 75 | 1017.9 |
| 20260507234029 | 51 | 123 | 1.0 | 7.0 | 0.00 | 0.00 | 0.00 | 74 | 1017.9 |
| 20260507233030 | 51 | 105 | 1.0 | 9.0 | 0.00 | 0.00 | 0.00 | 74 | 1017.9 |
| 20260507232029 | 52 | 88 | 2.0 | 10.0 | 0.00 | 0.00 | 0.00 | 73 | 1017.9 |
| 20260507231030 | 52 | 136 | 2.0 | 10.0 | 0.00 | 0.00 | 0.00 | 73 | 1017.9 |
| 20260507230030 | 52 | 267 | 1.0 | 13.0 | 0.00 | 0.00 | 0.00 | 72 | 1017.9 |
| 20260507225029 | 53 | 95 | 2.0 | 12.0 | 0.00 | 0.00 | 0.00 | 71 | 1017.9 |
| 20260507224030 | 53 | 139 | 2.0 | 12.0 | 0.00 | 0.00 | 0.00 | 71 | 1017.8 |
| 20260507223029 | 53 | 135 | 2.0 | 12.0 | 0.00 | 0.00 | 0.00 | 70 | 1017.9 |
| 20260507222030 | 54 | 89 | 4.0 | 13.0 | 0.00 | 0.00 | 0.00 | 69 | 1017.9 |
| 20260507221030 | 54 | 126 | 2.0 | 13.0 | 0.00 | 0.00 | 0.00 | 69 | 1017.8 |
| 20260507220029 | 55 | 93 | 6.0 | 13.0 | 0.00 | 0.00 | 0.00 | 69 | 1017.8 |
| 20260507215030 | 55 | 110 | 3.0 | 11.0 | 0.00 | 0.00 | 0.00 | 68 | 1017.8 |
| 20260507214029 | 55 | 107 | 4.0 | 10.0 | 0.00 | 0.00 | 0.00 | 68 | 1017.8 |
| 20260507213030 | 55 | 183 | 1.0 | 10.0 | 0.00 | 0.00 | 0.00 | 68 | 1017.8 |
| 20260507212030 | 55 | 132 | 3.0 | 12.0 | 0.00 | 0.00 | 0.00 | 68 | 1017.7 |
| 20260507211030 | 56 | 132 | 3.0 | 13.0 | 0.00 | 0.00 | 0.00 | 69 | 1017.7 |
| 20260507210029 | 56 | 124 | 2.0 | 13.0 | 0.00 | 0.00 | 0.00 | 70 | 1017.7 |
| 20260507205030 | 56 | 101 | 5.0 | 11.0 | 0.00 | 0.00 | 0.00 | 70 | 1017.7 |
| 20260507204029 | 55 | 107 | 5.0 | 10.0 | 0.00 | 0.00 | 0.00 | 70 | 1017.6 |
| 20260507203030 | 55 | 87 | 5.0 | 9.0 | 0.00 | 0.00 | 0.00 | 69 | 1017.5 |
| 20260507202029 | 55 | 80 | 6.0 | 10.0 | 0.00 | 0.00 | 0.00 | 69 | 1017.5 |
| 20260507201030 | 56 | 78 | 5.0 | 9.0 | 0.00 | 0.00 | 0.00 | 69 | 1017.2 |
| 20260507200029 | 56 | 69 | 5.0 | 12.0 | 0.00 | 0.00 | 0.00 | 68 | 1017.1 |
| 20260507195030 | 56 | 59 | 5.0 | 10.0 | 0.00 | 0.00 | 0.00 | 68 | 1017.1 |
| 20260507194029 | 56 | 66 | 5.0 | 9.0 | 0.00 | 0.00 | 0.00 | 67 | 1017.0 |
| 20260507193030 | 56 | 52 | 6.0 | 10.0 | 0.00 | 0.00 | 0.00 | 66 | 1016.9 |
| 20260507192030 | 57 | 45 | 6.0 | 11.0 | 0.00 | 0.00 | 0.00 | 66 | 1016.8 |
| 20260507191029 | 57 | 37 | 8.0 | 12.0 | 0.00 | 0.00 | 0.00 | 64 | 1016.8 |
| 20260507190029 | 57 | 45 | 8.0 | 12.0 | 0.00 | 0.00 | 0.00 | 62 | 1016.7 |
| 20260507185030 | 58 | 38 | 8.0 | 12.0 | 0.00 | 0.00 | 0.00 | 61 | 1016.6 |
| 20260507184030 | 58 | 43 | 8.0 | 12.0 | 0.00 | 0.00 | 0.00 | 61 | 1016.5 |
| 20260507183029 | 58 | 47 | 8.0 | 14.0 | 0.00 | 0.00 | 0.00 | 62 | 1016.4 |
| 20260507182030 | 58 | 36 | 6.0 | 11.0 | 0.00 | 0.00 | 0.00 | 66 | 1016.4 |
| 20260507181029 | 58 | 33 | 8.0 | 15.0 | 0.00 | 0.00 | 0.00 | 65 | 1016.3 |
| 20260507180030 | 58 | 38 | 6.0 | 13.0 | 0.00 | 0.00 | 0.00 | 65 | 1016.3 |
| 20260507175029 | 59 | 23 | 6.0 | 12.0 | 0.00 | 0.00 | 0.00 | 62 | 1016.3 |
| 20260507174030 | 59 | 28 | 8.0 | 14.0 | 0.00 | 0.00 | 0.00 | 60 | 1016.3 |
| 20260507173030 | 59 | 23 | 7.0 | 12.0 | 0.00 | 0.00 | 0.00 | 58 | 1016.1 |
| 20260507172029 | 59 | 357 | 7.0 | 13.0 | 0.00 | 0.00 | 0.00 | 59 | 1016.1 |
| 20260507171030 | 59 | 20 | 7.0 | 11.0 | 0.00 | 0.00 | 0.00 | 58 | 1016.3 |
| 20260507170029 | 60 | 353 | 9.0 | 13.0 | 0.00 | 0.00 | 0.00 | 59 | 1016.2 |
| 20260507165029 | 60 | 352 | 6.0 | 10.0 | 0.00 | 0.00 | 0.00 | 57 | 1016.1 |
| 20260507164030 | 60 | 344 | 8.0 | 11.0 | 0.00 | 0.00 | 0.00 | 57 | 1016.1 |
| 20260507163030 | 60 | 336 | 7.0 | 10.0 | 0.00 | 0.00 | 0.00 | 57 | 1016.1 |
| 20260507162029 | 60 | 349 | 7.0 | 11.0 | 0.00 | 0.00 | 0.00 | 57 | 1016.1 |
| 20260507161030 | 60 | 15 | 7.0 | 12.0 | 0.00 | 0.00 | 0.00 | 57 | 1016.0 |
| 20260507160029 | 60 | 352 | 6.0 | 12.0 | 0.00 | 0.00 | 0.00 | 57 | 1016.0 |
| 20260507155030 | 60 | 356 | 6.0 | 11.0 | 0.00 | 0.00 | 0.00 | 56 | 1016.0 |
| 20260507154030 | 60 | 348 | 8.0 | 13.0 | 0.00 | 0.00 | 0.00 | 58 | 1016.1 |
| 20260507153030 | 60 | 340 | 9.0 | 12.0 | 0.00 | 0.00 | 0.00 | 57 | 1016.1 |
| 20260507152029 | 60 | 343 | 9.0 | 12.0 | 0.00 | 0.00 | 0.00 | 57 | 1016.1 |
| 20260507151030 | 60 | 335 | 9.0 | 13.0 | 0.00 | 0.00 | 0.00 | 61 | 1016.0 |
| 20260507150030 | 60 | 327 | 11.0 | 15.0 | 0.00 | 0.00 | 0.00 | 58 | 1016.1 |
| 20260507145029 | 60 | 336 | 11.0 | 15.0 | 0.00 | 0.00 | 0.00 | 64 | 1016.0 |
| 20260507144030 | 60 | 327 | 11.0 | 14.0 | 0.00 | 0.00 | 0.00 | 66 | 1016.1 |
| 20260507143029 | 60 | 325 | 12.0 | 15.0 | 0.00 | 0.00 | 0.00 | 69 | 1016.2 |
| 20260507142030 | 59 | 323 | 12.0 | 14.0 | 0.00 | 0.00 | 0.00 | 68 | 1016.0 |
| 20260507141029 | 59 | 324 | 13.0 | 15.0 | 0.00 | 0.00 | 0.00 | 69 | 1016.1 |
| 20260507140030 | 59 | 320 | 13.0 | 16.0 | 0.00 | 0.00 | 0.00 | 70 | 1016.1 |
| 20260507135029 | 59 | 327 | 13.0 | 16.0 | 0.00 | 0.00 | 0.00 | 71 | 1016.1 |
| 20260507134030 | 59 | 324 | 13.0 | 16.0 | 0.00 | 0.00 | 0.00 | 72 | 1016.1 |
| 20260507133030 | 58 | 325 | 13.0 | 16.0 | 0.00 | 0.00 | 0.00 | 73 | 1016.2 |